Tracking 29042 objects as of 20-Jun-2024
HD Live streaming from Space Station
objects crossing your sky now

DELTA 1 DEB

Track DELTA 1 DEB now!
10-day predictions


NORAD ID: 9003
Int'l Code: 1975-004CM
Perigee: 606.6 km
Apogee: 642.8 km
Inclination: 98.2 °
Period: 97.1 minutes
Semi major axis: 6995 km
RCS: 0.043 m2 (small)
Launch date: January 22, 1975
Source: United States (US)
Launch site: AIR FORCE WESTERN TEST RANGE (AFWTR)

Note: This is SATELLITE DEBRIS
Your satellite tracking list
Your tracking list is empty




NASA's NSSDC Master Catalog

Two Line Element Set (TLE):
1 09003U 75004CM  24171.81555334  .00003239  00000-0  39609-3 0  9994
2 09003  98.2282 312.3817 0025894  89.7974 270.6206 14.83744353559927
Source of the keplerian elements: AFSPC